AirNav   Pilot Hours Calculator
 
 1220 users online  

6MN0 Sky Blue Airfield
Ponsford, Minnesota, USA

GOING TO PONSFORD?


FAA INFORMATION EFFECTIVE 01 DECEMBER 2022

Location

FAA Identifier: 6MN0
Lat/Long: 47-03-20.0000N 095-25-23.0000W
47-03.333333N 095-25.383333W
47.0555556,-95.4230556
(estimated)
Elevation: 1620 ft. / 494 m (estimated)
From city: 6 miles NW of PONSFORD, MN
Time zone: UTC -6 (UTC -5 during Daylight Saving Time)
Zip code: 56575

Airport Operations

Airport use: Private use. Permission required prior to landing
Activation date: 12/2004
Control tower: no
ARTCC: MINNEAPOLIS CENTER
FSS: PRINCETON FLIGHT SERVICE STATION
Attendance: IREG
Wind indicator: yes
Segmented circle: no

Airport Communications

WX ASOS at PKD (17 nm SE): 119.25 (218-732-0920)

Nearby radio navigation aids

VOR radial/distance  VOR name  Freq  Var
DTLr052/23.5DETROIT LAKES VOR/DME111.2002E
IDJr216/33.9LAKE BEMIDJI VOR/DME110.0001E

Airport Services

Runway Information

Runway 18/36

Dimensions: 3700 x 130 ft. / 1128 x 40 m
Surface: turf
RUNWAY 18  RUNWAY 36
Traffic pattern: leftleft

Airport Ownership and Management from official FAA records

Ownership: Privately-owned
Owner: PATRICK SWEENEY
3802 20TH ST N
FARGO, ND 58102
Phone (701) 371-4060
Manager: PATRICK SWEENEY
3802 20TH ST N
FARGO, ND 58102
Phone (701) 371-4060

Airport Operational Statistics

Aircraft based on the field: 1
Single engine airplanes: 1
    

Additional Remarks

FOR CD CTC MINNEAPOLIS ARTCC AT 651-463-5588.

Instrument Procedures

There are no published instrument procedures at 6MN0.

Some nearby airports with instrument procedures:

KPKD - Park Rapids Municipal Airport-Konshok Field (17 nm SE)
KDTL - Detroit Lakes Airport-Wething Field (23 nm SW)
3N8 - Mahnomen County Airport (24 nm NW)
16D - Perham Municipal Airport (28 nm S)
Y49 - Walker Municipal Airport (32 nm E)
 
Loc | Ops | Rwys | IFR | FBO | Links
Com | Nav | Svcs | Stats | Notes
Area around 6MN0 (Sky Blue Airfield)
 
Road maps at: MapQuest Bing Google
 
Aerial photo
No photo
 
Sectional chart

 
Airport distance calculator
Flying to Sky Blue Airfield? Find the distance to fly.

From to 6MN0

Sunrise and sunset
Times for 03-Dec-2022
 Local
(UTC-6)
 Zulu
(UTC)
Morning civil twilight07:1613:16
Sunrise07:5013:50
Sunset16:3322:33
Evening civil twilight17:0823:08

Current date and time
Zulu (UTC)  04-Dec-2022 02:38:40
Local (UTC-6)  03-Dec-2022 20:38:40
 
METAR
KPKD 
17nm SE 
040153Z AUTO 18005KT 10SM CLR M17/M19 A3013 RMK AO2 SLP244 T11671194
KDTL 
23nm SW 
040215Z AUTO 15004KT 10SM CLR M15/M17 A3013 RMK AO2
K3N8 
24nm NW 
040215Z AUTO 19008KT 10SM CLR M15/M18 A3013 RMK AO2 T11461177
KY49 
32nm E 
040215Z AUTO 23007KT 10SM CLR M16/M19 A3012 RMK AO2 T11571190
KBJI 
34nm NE 
040215Z AUTO 00000KT 7SM CLR M17/M20 A3011 RMK AO2 T11731199
KFSE 
35nm NW 
040215Z AUTO 20009KT 10SM CLR M17/M19 A3012 RMK AO2
TAF
KBJI 
34nm NE 
032238Z 0323/0418 VRB05KT P6SM FEW200
NOTAMs
Click for the latest NOTAMs
NOTAMs are issued by the DoD/FAA and will open in a separate window not controlled by AirNav.

 

 
 

Would you like to see your business listed on this page?

 If your business provides an interesting product or service to pilots, flight crews, aircraft, or users of the Sky Blue Airfield, you should consider listing it here.  To start the listing process, click on the button below
 
Add a business
 

Other Pages about Sky Blue Airfield

Update a link
 
Copyright © AirNav, LLC. All rights reserved. Privacy Policy  Contact